Airfield :
LOGIN :

Register | Disclaimer

   EN    FR    IT 

 










Legend :    VFR   Marginal VFR   IFR   Intensive IFR   Very Intensive IFR
Visi :
Ceiling :
>= 8 km
>= 3000ft
5 to 8 km
1000 to 3000 ft
1500m to 5 km
500 to 1000 ft
800 to 1500m
200 to 500 ft
< 800m
< 200 ft
Symbols :   Thunderstorms  Fog  Heavy snow  Heavy precipitations  Wind > 20 kt
SIGMETs :     Misc.  Thunderstorms  Icing  Turbulence  Mountain Waves  Volcanic Ashes







- Airport Elevation : 600 ft
- IATA code : VIE


LOWW - Vienna Schwechat

CURRENT METAR :
  • 180420Z VRB01KT CAVOK 14/09 Q1018 NOSIG

EXPIRED METARs :
  • 180350Z 10004KT CAVOK 14/09 Q1018 NOSIG
  • 180320Z 08006KT CAVOK 14/09 Q1018 NOSIG
  • 180250Z 10004KT 070V140 CAVOK 14/09 Q1018 NOSIG
  • 180220Z 13006KT CAVOK 15/09 Q1018 NOSIG
  • 180150Z 12007KT CAVOK 15/12 Q1018 NOSIG

TAF TAF LOWW
Valid from the 18 at 03:00 until the 19 at 09:00 UTC


180215Z 1803/1909 13007KT CAVOK TX20/1814Z TN10/1805Z
BECMG 1804/1806 VRB02KT
TEMPO 1805/1808 4000 BR NSC
BECMG 1818/1820 33007KT
No reported NOTAMs for that airfield.



MET'MAP, your aeronautical weather chart ! - Copyright ORBIFLY December 2007 - Disclaimer

ORBIFLY MET'MAP TEAM :

Programming & Development : Alexandra Zaïnal
Concept & Development : Baudouin d'Aumeries
Co-Development & Prog : Marc-Olivier Méhu
Technical & hardware support : Manuel Goepfert

Contact : metmap@orbifly.com




SOURCES & CREDITS :

   NOAA